Time,TemperatureF,DewpointF,PressureIn,WindDirection,WindDirectionDegrees,WindSpeedMPH,WindSpeedGustMPH,Humidity,HourlyPrecipIn,Conditions,Clouds,dailyrainin,SolarRadiationWatts/m^2,SoftwareType,DateUTC
2013-07-05 00:01:00,68.0,67.0,-100.00,SE,137,0.0,0.0,95,0.00,,,0.11,0.000000,,2013-07-05 04:01:00,
2013-07-05 00:33:00,66.0,65.0,-100.00,SE,145,0.0,0.0,98,0.00,,,0.11,0.000000,,2013-07-05 04:33:00,
2013-07-05 00:43:00,66.0,65.0,-100.00,SE,145,0.0,0.0,98,0.00,,,0.11,0.000000,,2013-07-05 04:43:00,
2013-07-05 00:53:00,66.0,65.0,-100.00,SE,145,0.0,0.0,98,0.00,,,0.11,0.000000,,2013-07-05 04:53:00,
2013-07-05 01:01:00,66.0,65.0,-100.00,SE,145,0.0,0.0,98,0.00,,,0.11,0.000000,,2013-07-05 05:01:00,
2013-07-05 01:33:00,65.0,64.0,-100.00,ESE,113,0.0,0.0,98,0.00,,,0.11,0.000000,,2013-07-05 05:33:00,
2013-07-05 01:43:00,65.0,64.0,-100.00,ESE,113,0.0,0.0,98,0.00,,,0.11,0.000000,,2013-07-05 05:43:00,
2013-07-05 01:52:00,65.0,64.0,-100.00,ESE,113,0.0,0.0,98,0.00,,,0.11,0.000000,,2013-07-05 05:52:00,
2013-07-05 02:02:00,65.0,64.0,-100.00,ESE,113,0.0,0.0,98,0.00,,,0.11,0.000000,,2013-07-05 06:02:00,
2013-07-05 02:34:00,66.0,66.0,-100.00,ESE,109,0.0,3.0,99,0.00,,,0.11,0.000000,,2013-07-05 06:34:00,
2013-07-05 02:44:00,66.0,66.0,-100.00,ESE,109,0.0,3.0,99,0.00,,,0.11,0.000000,,2013-07-05 06:44:00,
2013-07-05 02:53:00,66.0,66.0,-100.00,ESE,109,0.0,3.0,99,0.00,,,0.11,0.000000,,2013-07-05 06:53:00,
2013-07-05 03:02:00,66.0,66.0,-100.00,ESE,109,0.0,3.0,99,0.00,,,0.11,0.000000,,2013-07-05 07:02:00,
2013-07-05 03:34:00,67.0,67.0,-100.00,SSE,167,2.0,2.0,99,0.00,,,0.11,0.000000,,2013-07-05 07:34:00,
2013-07-05 03:43:00,67.0,67.0,-100.00,SSE,167,2.0,2.0,99,0.00,,,0.11,0.000000,,2013-07-05 07:43:00,
2013-07-05 03:53:00,67.0,67.0,-100.00,SSE,167,2.0,2.0,99,0.00,,,0.11,0.000000,,2013-07-05 07:53:00,
2013-07-05 04:03:00,67.0,67.0,-100.00,SSE,167,2.0,2.0,99,0.00,,,0.11,0.000000,,2013-07-05 08:03:00,
2013-07-05 04:33:00,67.0,66.0,-100.00,SSE,168,2.0,5.0,98,0.00,,,0.11,0.000000,,2013-07-05 08:33:00,
2013-07-05 04:44:00,67.0,66.0,-100.00,SSE,168,2.0,5.0,98,0.00,,,0.11,0.000000,,2013-07-05 08:44:00,
2013-07-05 04:57:00,67.0,66.0,-100.00,SSE,168,2.0,5.0,98,0.00,,,0.11,0.000000,,2013-07-05 08:57:00,
2013-07-05 05:07:00,66.0,65.0,-100.00,SE,130,1.0,2.0,98,0.00,,,0.11,0.000000,,2013-07-05 09:07:00,
2013-07-05 05:37:00,66.0,65.0,-100.00,SE,130,1.0,2.0,98,0.00,,,0.11,0.000000,,2013-07-05 09:37:00,
2013-07-05 05:48:00,66.0,65.0,-100.00,SE,130,1.0,2.0,98,0.00,,,0.11,0.000000,,2013-07-05 09:48:00,
2013-07-05 05:57:00,66.0,65.0,-100.00,SE,130,1.0,2.0,98,0.00,,,0.11,0.000000,,2013-07-05 09:57:00,
2013-07-05 06:07:00,66.0,66.0,-100.00,SE,129,2.0,3.0,99,0.00,,,0.11,5.000000,,2013-07-05 10:07:00,
2013-07-05 06:38:00,66.0,66.0,-100.00,SE,129,2.0,3.0,99,0.00,,,0.11,5.000000,,2013-07-05 10:38:00,
2013-07-05 06:47:00,66.0,66.0,-100.00,SE,129,2.0,3.0,99,0.00,,,0.11,5.000000,,2013-07-05 10:47:00,
2013-07-05 06:58:00,66.0,66.0,-100.00,SE,129,2.0,3.0,99,0.00,,,0.11,5.000000,,2013-07-05 10:58:00,
2013-07-05 07:07:00,68.0,67.0,-100.00,SE,129,2.0,4.0,98,0.00,,,0.11,59.000000,,2013-07-05 11:07:00,
2013-07-05 07:38:00,68.0,67.0,-100.00,SE,129,2.0,4.0,98,0.00,,,0.11,59.000000,,2013-07-05 11:38:00,
2013-07-05 07:51:00,68.0,67.0,-100.00,SE,129,2.0,4.0,98,0.00,,,0.11,59.000000,,2013-07-05 11:51:00,
2013-07-05 08:00:00,68.0,67.0,-100.00,SE,129,2.0,4.0,98,0.00,,,0.11,59.000000,,2013-07-05 12:00:00,
2013-07-05 08:07:00,73.0,68.0,-100.00,South,189,5.0,7.0,85,0.00,,,0.11,256.000000,,2013-07-05 12:07:00,
2013-07-05 08:38:00,73.0,68.0,-100.00,South,189,5.0,7.0,85,0.00,,,0.11,256.000000,,2013-07-05 12:38:00,
2013-07-05 08:51:00,73.0,68.0,-100.00,South,189,5.0,7.0,85,0.00,,,0.11,256.000000,,2013-07-05 12:51:00,
2013-07-05 09:00:00,73.0,68.0,-100.00,South,189,5.0,7.0,85,0.00,,,0.11,256.000000,,2013-07-05 13:00:00,
2013-07-05 09:50:00,74.0,67.0,-100.00,SSW,206,5.0,7.0,79,0.00,,,0.11,379.000000,,2013-07-05 13:50:00,
2013-07-05 09:58:00,74.0,67.0,-100.00,SSW,206,5.0,7.0,79,0.00,,,0.11,379.000000,,2013-07-05 13:58:00,
2013-07-05 10:40:00,75.0,67.0,-100.00,SW,226,5.0,8.0,76,0.00,,,0.11,456.000000,,2013-07-05 14:40:00,
2013-07-05 10:58:00,75.0,67.0,-100.00,SW,226,5.0,8.0,76,0.00,,,0.11,456.000000,,2013-07-05 14:58:00,
2013-07-05 11:34:00,77.0,67.0,-100.00,SW,216,5.0,8.0,72,0.00,,,0.11,514.000000,,2013-07-05 15:34:00,
2013-07-05 11:43:00,77.0,67.0,-100.00,SW,216,5.0,8.0,72,0.00,,,0.11,514.000000,,2013-07-05 15:43:00,
2013-07-05 11:53:00,77.0,67.0,-100.00,SW,216,5.0,8.0,72,0.00,,,0.11,514.000000,,2013-07-05 15:53:00,
2013-07-05 12:02:00,77.0,67.0,-100.00,SW,216,5.0,8.0,72,0.00,,,0.11,514.000000,,2013-07-05 16:02:00,
2013-07-05 12:33:00,78.0,68.0,-100.00,SSW,213,4.0,9.0,71,0.00,,,0.00,561.000000,,2013-07-05 16:33:00,
2013-07-05 12:44:00,78.0,68.0,-100.00,SSW,213,4.0,9.0,71,0.00,,,0.00,561.000000,,2013-07-05 16:44:00,
2013-07-05 12:53:00,78.0,68.0,-100.00,SSW,213,4.0,9.0,71,0.00,,,0.00,561.000000,,2013-07-05 16:53:00,
2013-07-05 13:02:00,78.0,68.0,-100.00,SSW,213,4.0,9.0,71,0.00,,,0.00,561.000000,,2013-07-05 17:02:00,
2013-07-05 13:43:00,80.0,68.0,-100.00,SW,214,5.0,9.0,67,0.00,,,0.00,635.000000,,2013-07-05 17:43:00,
2013-07-05 13:53:00,80.0,68.0,-100.00,SW,214,5.0,9.0,67,0.00,,,0.00,635.000000,,2013-07-05 17:53:00,
2013-07-05 14:02:00,80.0,68.0,-100.00,SW,214,5.0,9.0,67,0.00,,,0.00,635.000000,,2013-07-05 18:02:00,
2013-07-05 14:33:00,80.0,66.0,-100.00,SSW,205,6.0,11.0,62,0.00,,,0.00,716.000000,,2013-07-05 18:33:00,
2013-07-05 14:43:00,80.0,66.0,-100.00,SSW,205,6.0,11.0,62,0.00,,,0.00,716.000000,,2013-07-05 18:43:00,
2013-07-05 14:53:00,80.0,66.0,-100.00,SSW,205,6.0,11.0,62,0.00,,,0.00,716.000000,,2013-07-05 18:53:00,
2013-07-05 15:02:00,80.0,66.0,-100.00,SSW,205,6.0,11.0,62,0.00,,,0.00,716.000000,,2013-07-05 19:02:00,
2013-07-05 15:34:00,80.0,66.0,-100.00,SSW,212,6.0,10.0,63,0.00,,,0.00,564.000000,,2013-07-05 19:34:00,
2013-07-05 15:43:00,80.0,66.0,-100.00,SSW,212,6.0,10.0,63,0.00,,,0.00,564.000000,,2013-07-05 19:43:00,
2013-07-05 15:53:00,80.0,66.0,-100.00,SSW,212,6.0,10.0,63,0.00,,,0.00,564.000000,,2013-07-05 19:53:00,
2013-07-05 16:02:00,80.0,66.0,-100.00,SSW,212,6.0,10.0,63,0.00,,,0.00,564.000000,,2013-07-05 20:02:00,
2013-07-05 16:33:00,82.0,66.0,-100.00,SW,230,6.0,11.0,58,0.00,,,0.00,953.000000,,2013-07-05 20:33:00,
2013-07-05 16:43:00,82.0,66.0,-100.00,SW,230,6.0,11.0,58,0.00,,,0.00,953.000000,,2013-07-05 20:43:00,
2013-07-05 16:53:00,82.0,66.0,-100.00,SW,230,6.0,11.0,58,0.00,,,0.00,953.000000,,2013-07-05 20:53:00,
2013-07-05 17:02:00,82.0,66.0,-100.00,SW,230,6.0,11.0,58,0.00,,,0.00,953.000000,,2013-07-05 21:02:00,
2013-07-05 17:34:00,81.0,66.0,-100.00,SW,228,5.0,12.0,61,0.00,,,0.00,481.000000,,2013-07-05 21:34:00,
2013-07-05 17:43:00,81.0,66.0,-100.00,SW,228,5.0,12.0,61,0.00,,,0.00,481.000000,,2013-07-05 21:43:00,
2013-07-05 17:53:00,81.0,66.0,-100.00,SW,228,5.0,12.0,61,0.00,,,0.00,481.000000,,2013-07-05 21:53:00,
2013-07-05 18:02:00,81.0,66.0,-100.00,SW,228,5.0,12.0,61,0.00,,,0.00,481.000000,,2013-07-05 22:02:00,
2013-07-05 18:34:00,81.0,66.0,-100.00,SW,217,7.0,12.0,60,0.00,,,-99.99,516.000000,,2013-07-05 22:34:00,
2013-07-05 18:43:00,81.0,66.0,-100.00,SW,217,7.0,12.0,60,0.00,,,-99.99,516.000000,,2013-07-05 22:43:00,
2013-07-05 18:53:00,81.0,66.0,-100.00,SW,217,7.0,12.0,60,0.00,,,-99.99,516.000000,,2013-07-05 22:53:00,
2013-07-05 19:02:00,81.0,66.0,-100.00,SW,217,7.0,12.0,60,0.00,,,-99.99,516.000000,,2013-07-05 23:02:00,
2013-07-05 19:32:00,79.0,66.0,-100.00,SW,225,7.0,12.0,64,0.00,,,0.00,292.000000,,2013-07-05 23:32:00,
2013-07-05 19:43:00,79.0,66.0,-100.00,SW,225,7.0,12.0,64,0.00,,,0.00,292.000000,,2013-07-05 23:43:00,
2013-07-05 19:53:00,79.0,66.0,-100.00,SW,225,7.0,12.0,64,0.00,,,0.00,292.000000,,2013-07-05 23:53:00,
2013-07-05 20:02:00,79.0,66.0,-100.00,SW,225,7.0,12.0,64,0.00,,,0.00,292.000000,,2013-07-06 00:02:00,
2013-07-05 20:33:00,75.0,65.0,-100.00,SW,223,4.0,8.0,72,0.00,,,0.00,137.000000,,2013-07-06 00:33:00,
2013-07-05 20:43:00,75.0,65.0,-100.00,SW,223,4.0,8.0,72,0.00,,,0.00,137.000000,,2013-07-06 00:43:00,
2013-07-05 20:53:00,75.0,65.0,-100.00,SW,223,4.0,8.0,72,0.00,,,0.00,137.000000,,2013-07-06 00:53:00,
2013-07-05 21:02:00,75.0,65.0,-100.00,SW,223,4.0,8.0,72,0.00,,,0.00,137.000000,,2013-07-06 01:02:00,
2013-07-05 21:43:00,73.0,66.0,-100.00,SW,227,3.0,4.0,79,0.00,,,0.00,8.000000,,2013-07-06 01:43:00,
2013-07-05 21:53:00,73.0,66.0,-100.00,SW,227,3.0,4.0,79,0.00,,,0.00,8.000000,,2013-07-06 01:53:00,
2013-07-05 22:02:00,73.0,66.0,-100.00,SW,227,3.0,4.0,79,0.00,,,0.00,8.000000,,2013-07-06 02:02:00,
2013-07-05 22:34:00,72.0,66.0,-100.00,SW,236,0.0,0.0,82,0.00,,,0.00,0.000000,,2013-07-06 02:34:00,
2013-07-05 22:43:00,72.0,66.0,-100.00,SW,236,0.0,0.0,82,0.00,,,0.00,0.000000,,2013-07-06 02:43:00,
2013-07-05 22:53:00,72.0,66.0,-100.00,SW,236,0.0,0.0,82,0.00,,,0.00,0.000000,,2013-07-06 02:53:00,
2013-07-05 23:02:00,72.0,66.0,-100.00,SW,236,0.0,0.0,82,0.00,,,0.00,0.000000,,2013-07-06 03:02:00,
2013-07-05 23:34:00,70.0,67.0,-100.00,SSW,206,0.0,2.0,90,0.00,,,0.00,0.000000,,2013-07-06 03:34:00,
2013-07-05 23:43:00,70.0,67.0,-100.00,SSW,206,0.0,2.0,90,0.00,,,0.00,0.000000,,2013-07-06 03:43:00,
2013-07-05 23:53:00,70.0,67.0,-100.00,SSW,206,0.0,2.0,90,0.00,,,0.00,0.000000,,2013-07-06 03:53:00,